Weather Roundup
Issued by NWS Springfield, MO

Home | Current Version | Previous Version | Text Only | Print | Product List | Glossary On
Versions: 1 2 3 4 5 6 7 8 9 10 11 12 13 14 15 16 17 18 19 20 21 22 23 24 25 26 27 28 29 30 31 32 33 34 35 36 37 38 39 40 41 42 43 44 45 46 47 48 49 50
000
NZUS99 KSGF 050007
HRRSGF

HOURLY WEATHER
NATIONAL WEATHER SERVICE SPRINGFIELD MO
600 PM CST WED MAR 04 2015

......SGF CWA......

CITY           SKY/WX    TMP DP  RH WIND       PRES   REMARKS
SPRINGFIELD    FLURRIES  23   8  52 N10       30.27R WCI  12
6HR MIN TEMP:  22; 6HR MAX TEMP:  23; 6HR PCP: TRACE;

JOPLIN         CLOUDY    25   9  50 N10       30.32R WCI  15
6HR MIN TEMP:  22; 6HR MAX TEMP:  25; 6HR PCP:  0.01;

WEST PLAINS    LGT SNOW  19  15  84 N7        30.23R FOG     WCI  10
6HR MIN TEMP:  19; 6HR MAX TEMP:  23; 6HR PCP:  0.11;

ROLLA          CLOUDY    21   4  47 N15       30.22S WCI   8
6HR MIN TEMP:  19; 6HR MAX TEMP:  22; 6HR PCP: TRACE;

OSAGE BEACH    CLOUDY    25   5  42 N6        30.28R WCI  18
BRANSON        LGT SNOW  23  19  86 N5        30.23R WCI  17

......SURROUNDING SGF CWA......

CITY           SKY/WX    TMP DP  RH WIND       PRES   REMARKS
CHANUTE        CLOUDY    27   9  46 N8        30.34R WCI  19
PARSONS        CLOUDY    27   8  44 N13G21    30.35R WCI  16
COFFEYVILLE    CLOUDY    27  10  49 N16       30.33R WCI  15
EMPORIA        CLOUDY    28   7  41 N7        30.31R WCI  21
GROVE OK       LGT SNOW  27  21  80 NE7       30.33R WCI  19
ROGERS AR      FLURRIES  21  17  84 N13       30.24R WCI   9
SILOAM SPRINGS CLOUDY    21  12  68 N14G21    30.25R WCI   8
HARRISON AR    LGT SNOW  20  18  92 N10       30.21S FOG     WCI   9
NEAR YELLVILLE CLOUDY    21  18  86 CALM      30.23S VSB 1/4

......KANSAS AND MISSOURI......

CITY           SKY/WX    TMP DP  RH WIND       PRES   REMARKS
KANSAS CTY INT CLOUDY    27   7  42 N9        30.30R WCI  18
DOWNTOWN KC    CLOUDY    29   4  34 N9        30.33R WCI  20
COLUMBIA       MOCLDY    23   4  44 N13       30.28R WCI  11
SEDALIA        CLOUDY    25   3  38 N10       30.30R WCI  15
ST JOSEPH      MOCLDY    29   8  41 NW3       30.31R
ST LOUIS       CLOUDY    24   5  44 N12       30.29R WCI  13
SPIRIT OF STL  CLOUDY    23   3  42 N10G18    30.29R WCI  12
WICHITA        CLOUDY    30   6  36 NE17      30.27F WCI  18
TOPEKA         CLOUDY    30   6  36 N8        30.33R WCI  22
OLATHE         CLOUDY    27   4  37 N6        30.30R WCI  20

......TENNESSEE......

CITY           SKY/WX    TMP DP  RH WIND       PRES   REMARKS
MEMPHIS        SLEET     32  29  88 N16G25    30.10R FOG     WCI  21
NASHVILLE      RAIN      35  33  92 N13       30.08R FOG     WCI  26

......ARKANSAS.......

CITY           SKY/WX    TMP DP  RH WIND       PRES   REMARKS
FAYETTEVILLE   CLOUDY    22  19  89 N10       30.22R WCI  11
FT SMITH       MIX PCPN  29  24  82 N14       30.21R WCI  18
LITTLE ROCK    LGTSLEET  33  31  92 N14       30.13R FOG     WCI  23

......OKLAHOMA.......

CITY           SKY/WX    TMP DP  RH WIND       PRES   REMARKS
TULSA          LGT SNOW  25  22  88 N20G26    30.28F VSB 3/4 WCI  11
PONCA CITY     CLOUDY    28  14  55 NE13      30.32R WCI  17
MCALESTER      LGT SNOW  26  22  84 N23       30.21R FOG     WCI  11
OKLAHOMA CITY  LGT SNOW  25  19  78 N14G23    30.26R VSB 3/4 WCI  13

......IOWA............

CITY           SKY/WX    TMP DP  RH WIND       PRES   REMARKS
DES MOINES     PTCLDY    22   1  40 NW18G25   30.29R WCI   7
QUAD CITIES    PTCLDY    17   1  49 NW9       30.28R WCI   6

......ILLINOIS........

CITY           SKY/WX    TMP DP  RH WIND       PRES   REMARKS
QUINCY         PTCLDY    20   5  52 NE9       30.29S WCI   9
CHICAGO        MOCLDY    17  -2  43 NW13      30.22R WCI   4




USA.gov is the U.S. government's official web portal to all federal, state and local government web resources and services.